Time,TemperatureF,DewpointF,PressureIn,WindDirection,WindDirectionDegrees,WindSpeedMPH,WindSpeedGustMPH,Humidity,HourlyPrecipIn,Conditions,Clouds,dailyrainin,SolarRadiationWatts/m^2,SoftwareType,DateUTC
2013-05-06 00:01:00,44.5,42.0,30.10,SE,131,0.0,0.0,91,0.00,,,0.00,0,WeatherCatV1.14B232,2013-05-06 04:01:00,
2013-05-06 00:06:00,44.7,42.2,30.10,SE,131,0.0,0.0,91,0.00,,,0.00,0,WeatherCatV1.14B232,2013-05-06 04:06:00,
2013-05-06 00:11:00,44.7,42.2,30.10,SE,131,0.0,0.0,91,0.00,,,0.00,0,WeatherCatV1.14B232,2013-05-06 04:11:00,
2013-05-06 00:16:00,44.7,42.2,30.10,SE,131,0.0,0.0,91,0.00,,,0.00,0,WeatherCatV1.14B232,2013-05-06 04:16:00,
2013-05-06 00:21:00,44.8,42.6,30.10,SE,131,0.0,0.0,92,0.00,,,0.00,0,WeatherCatV1.14B232,2013-05-06 04:21:00,
2013-05-06 00:26:00,44.8,42.6,30.09,SE,131,0.0,0.0,92,0.00,,,0.00,0,WeatherCatV1.14B232,2013-05-06 04:26:00,
2013-05-06 00:31:00,44.6,42.4,30.09,SE,131,0.0,0.0,92,0.00,,,0.00,0,WeatherCatV1.14B232,2013-05-06 04:31:00,
2013-05-06 00:36:00,44.3,42.1,30.09,SE,131,0.0,0.0,92,0.00,,,0.00,0,WeatherCatV1.14B232,2013-05-06 04:36:00,
2013-05-06 00:41:00,44.2,42.3,30.09,SE,131,0.0,0.0,93,0.00,,,0.00,0,WeatherCatV1.14B232,2013-05-06 04:41:00,
2013-05-06 00:46:00,44.0,42.1,30.09,SE,131,0.0,0.0,93,0.00,,,0.00,0,WeatherCatV1.14B232,2013-05-06 04:46:00,
2013-05-06 00:51:00,43.8,41.9,30.09,SE,131,0.0,0.0,93,0.00,,,0.00,0,WeatherCatV1.14B232,2013-05-06 04:51:00,
2013-05-06 00:56:00,43.7,41.8,30.09,SE,131,0.0,0.0,93,0.00,,,0.00,0,WeatherCatV1.14B232,2013-05-06 04:56:00,
2013-05-06 01:01:00,43.7,41.8,30.08,SE,131,0.0,0.0,93,0.00,,,0.00,0,WeatherCatV1.14B232,2013-05-06 05:01:00,
2013-05-06 01:06:00,43.6,41.7,30.08,SE,131,0.0,0.0,93,0.00,,,0.00,0,WeatherCatV1.14B232,2013-05-06 05:06:00,
2013-05-06 01:11:00,43.6,41.7,30.08,SE,131,0.0,0.0,93,0.00,,,0.00,0,WeatherCatV1.14B232,2013-05-06 05:11:00,
2013-05-06 01:16:00,43.4,41.5,30.08,SE,131,0.0,0.0,93,0.00,,,0.00,0,WeatherCatV1.14B232,2013-05-06 05:16:00,
2013-05-06 01:21:00,43.4,41.8,30.08,SE,131,0.0,0.0,94,0.00,,,0.00,0,WeatherCatV1.14B232,2013-05-06 05:21:00,
2013-05-06 01:26:00,43.2,41.6,30.08,SE,131,0.0,0.0,94,0.00,,,0.00,0,WeatherCatV1.14B232,2013-05-06 05:26:00,
2013-05-06 01:31:00,43.2,41.6,30.08,SE,131,0.0,0.0,94,0.00,,,0.00,0,WeatherCatV1.14B232,2013-05-06 05:31:00,
2013-05-06 01:36:00,43.0,41.4,30.08,SE,131,0.0,0.0,94,0.00,,,0.00,0,WeatherCatV1.14B232,2013-05-06 05:36:00,
2013-05-06 01:41:00,43.1,41.8,30.07,SE,130,0.0,0.0,95,0.00,,,0.00,0,WeatherCatV1.14B232,2013-05-06 05:41:00,
2013-05-06 01:46:00,43.2,41.9,30.07,ESE,121,0.0,0.0,95,0.00,,,0.00,0,WeatherCatV1.14B232,2013-05-06 05:46:00,
2013-05-06 01:51:00,43.2,41.9,30.08,ESE,121,0.0,0.0,95,0.00,,,0.00,0,WeatherCatV1.14B232,2013-05-06 05:51:00,
2013-05-06 01:56:00,43.1,41.8,30.07,ESE,119,0.0,0.0,95,0.00,,,0.00,0,WeatherCatV1.14B232,2013-05-06 05:56:00,
2013-05-06 02:01:00,43.0,41.4,30.07,ESE,119,0.0,0.0,94,0.00,,,0.00,0,WeatherCatV1.14B232,2013-05-06 06:01:00,
2013-05-06 02:06:00,42.9,41.6,30.07,ESE,119,0.0,0.0,95,0.00,,,0.00,0,WeatherCatV1.14B232,2013-05-06 06:06:00,
2013-05-06 02:11:00,42.8,41.5,30.07,ESE,119,0.0,0.0,95,0.00,,,0.00,0,WeatherCatV1.14B232,2013-05-06 06:11:00,
2013-05-06 02:16:00,42.8,41.5,30.07,ESE,119,0.0,0.0,95,0.00,,,0.00,0,WeatherCatV1.14B232,2013-05-06 06:16:00,
2013-05-06 02:21:00,42.8,41.5,30.07,ESE,119,0.0,0.0,95,0.00,,,0.00,0,WeatherCatV1.14B232,2013-05-06 06:21:00,
2013-05-06 02:26:00,42.8,41.5,30.07,ESE,119,0.0,0.0,95,0.00,,,0.00,0,WeatherCatV1.14B232,2013-05-06 06:26:00,
2013-05-06 02:31:00,42.8,41.5,30.07,ESE,119,0.0,0.0,95,0.00,,,0.00,0,WeatherCatV1.14B232,2013-05-06 06:31:00,
2013-05-06 02:36:00,42.9,41.8,30.07,ESE,119,0.0,0.0,96,0.00,,,0.00,0,WeatherCatV1.14B232,2013-05-06 06:36:00,
2013-05-06 02:41:00,43.2,42.1,30.07,ESE,119,0.0,0.0,96,0.00,,,0.00,0,WeatherCatV1.14B232,2013-05-06 06:41:00,
2013-05-06 02:46:00,43.3,42.2,30.07,ESE,119,0.0,0.0,96,0.00,,,0.00,0,WeatherCatV1.14B232,2013-05-06 06:46:00,
2013-05-06 02:51:00,43.4,42.3,30.07,East,96,0.0,0.0,96,0.00,,,0.00,0,WeatherCatV1.14B232,2013-05-06 06:51:00,
2013-05-06 02:56:00,43.4,42.1,30.07,East,96,0.0,0.0,95,0.00,,,0.00,0,WeatherCatV1.14B232,2013-05-06 06:56:00,
2013-05-06 03:01:00,43.5,42.4,30.07,East,96,0.0,0.0,96,0.00,,,0.00,0,WeatherCatV1.14B232,2013-05-06 07:01:00,
2013-05-06 03:06:00,43.6,42.3,30.07,ENE,69,0.0,1.0,95,0.00,,,0.00,0,WeatherCatV1.14B232,2013-05-06 07:06:00,
2013-05-06 03:11:00,43.4,42.1,30.07,ENE,69,0.0,0.0,95,0.00,,,0.00,0,WeatherCatV1.14B232,2013-05-06 07:11:00,
2013-05-06 03:16:00,43.4,42.1,30.07,NE,39,0.0,1.0,95,0.00,,,0.00,0,WeatherCatV1.14B232,2013-05-06 07:16:00,
2013-05-06 03:21:00,43.4,42.1,30.07,NE,38,0.0,0.0,95,0.00,,,0.00,0,WeatherCatV1.14B232,2013-05-06 07:21:00,
2013-05-06 03:26:00,43.2,41.9,30.07,North,5,1.0,2.0,95,0.00,,,0.00,0,WeatherCatV1.14B232,2013-05-06 07:26:00,
2013-05-06 03:31:00,43.0,41.4,30.07,NNE,14,0.0,0.0,94,0.00,,,0.00,0,WeatherCatV1.14B232,2013-05-06 07:31:00,
2013-05-06 03:36:00,42.9,41.3,30.07,NNE,14,0.0,0.0,94,0.00,,,0.00,0,WeatherCatV1.14B232,2013-05-06 07:36:00,
2013-05-06 03:41:00,42.9,41.6,30.07,NNE,14,0.0,0.0,95,0.00,,,0.00,0,WeatherCatV1.14B232,2013-05-06 07:41:00,
2013-05-06 03:46:00,43.0,41.7,30.07,NNE,14,0.0,0.0,95,0.00,,,0.00,0,WeatherCatV1.14B232,2013-05-06 07:46:00,
2013-05-06 03:51:00,42.9,41.6,30.07,NNE,17,0.0,0.0,95,0.00,,,0.00,0,WeatherCatV1.14B232,2013-05-06 07:51:00,
2013-05-06 03:56:00,43.0,41.7,30.07,NNE,18,0.0,0.0,95,0.00,,,0.00,0,WeatherCatV1.14B232,2013-05-06 07:56:00,
2013-05-06 04:01:00,43.1,41.8,30.07,NNE,18,0.0,0.0,95,0.00,,,0.00,0,WeatherCatV1.14B232,2013-05-06 08:01:00,
2013-05-06 04:06:00,43.1,41.8,30.07,NNE,19,0.0,0.0,95,0.00,,,0.00,0,WeatherCatV1.14B232,2013-05-06 08:06:00,
2013-05-06 04:11:00,43.2,42.1,30.08,NNE,21,0.0,0.0,96,0.00,,,0.00,0,WeatherCatV1.14B232,2013-05-06 08:11:00,
2013-05-06 04:16:00,43.2,42.1,30.08,East,92,0.0,0.0,96,0.00,,,0.00,0,WeatherCatV1.14B232,2013-05-06 08:16:00,
2013-05-06 04:21:00,43.3,42.2,30.08,East,81,0.0,1.0,96,0.00,,,0.00,0,WeatherCatV1.14B232,2013-05-06 08:21:00,
2013-05-06 04:26:00,43.4,42.3,30.08,East,81,0.0,0.0,96,0.00,,,0.00,0,WeatherCatV1.14B232,2013-05-06 08:26:00,
2013-05-06 04:31:00,43.4,42.1,30.08,East,81,0.0,0.0,95,0.00,,,0.00,0,WeatherCatV1.14B232,2013-05-06 08:31:00,
2013-05-06 04:36:00,43.5,42.4,30.08,East,81,0.0,0.0,96,0.00,,,0.00,0,WeatherCatV1.14B232,2013-05-06 08:36:00,
2013-05-06 04:41:00,43.7,42.6,30.08,East,81,0.0,0.0,96,0.00,,,0.00,0,WeatherCatV1.14B232,2013-05-06 08:41:00,
2013-05-06 04:46:00,43.8,42.7,30.08,East,81,0.0,0.0,96,0.00,,,0.00,0,WeatherCatV1.14B232,2013-05-06 08:46:00,
2013-05-06 04:51:00,44.0,42.9,30.08,East,81,0.0,0.0,96,0.00,,,0.00,0,WeatherCatV1.14B232,2013-05-06 08:51:00,
2013-05-06 04:56:00,44.1,43.0,30.08,East,81,0.0,0.0,96,0.00,,,0.00,0,WeatherCatV1.14B232,2013-05-06 08:56:00,
2013-05-06 05:01:00,44.1,43.0,30.07,ENE,64,0.0,0.0,96,0.00,,,0.00,0,WeatherCatV1.14B232,2013-05-06 09:01:00,
2013-05-06 05:06:00,44.2,43.1,30.07,NE,47,0.0,2.0,96,0.00,,,0.00,0,WeatherCatV1.14B232,2013-05-06 09:06:00,
2013-05-06 05:11:00,44.3,43.0,30.07,NE,47,1.0,1.0,95,0.00,,,0.00,0,WeatherCatV1.14B232,2013-05-06 09:11:00,
2013-05-06 05:16:00,44.4,43.1,30.07,NE,47,0.0,0.0,95,0.00,,,0.00,0,WeatherCatV1.14B232,2013-05-06 09:16:00,
2013-05-06 05:21:00,44.5,43.2,30.07,NE,44,1.0,2.0,95,0.00,,,0.00,0,WeatherCatV1.14B232,2013-05-06 09:21:00,
2013-05-06 05:26:00,44.6,43.3,30.07,NE,35,0.0,0.0,95,0.00,,,0.00,0,WeatherCatV1.14B232,2013-05-06 09:26:00,
2013-05-06 05:31:00,44.7,43.4,30.07,NE,35,0.0,0.0,95,0.00,,,0.00,0,WeatherCatV1.14B232,2013-05-06 09:31:00,
2013-05-06 05:36:00,44.8,43.5,30.07,NE,35,0.0,0.0,95,0.00,,,0.00,0,WeatherCatV1.14B232,2013-05-06 09:36:00,
2013-05-06 05:41:00,44.9,43.6,30.08,NE,38,0.0,0.0,95,0.00,,,0.00,0,WeatherCatV1.14B232,2013-05-06 09:41:00,
2013-05-06 05:46:00,45.1,43.8,30.08,NE,38,0.0,0.0,95,0.00,,,0.00,0,WeatherCatV1.14B232,2013-05-06 09:46:00,
2013-05-06 05:51:00,45.2,43.9,30.08,NE,38,0.0,0.0,95,0.00,,,0.00,0,WeatherCatV1.14B232,2013-05-06 09:51:00,
2013-05-06 05:56:00,45.3,44.0,30.08,NE,38,0.0,0.0,95,0.00,,,0.00,0,WeatherCatV1.14B232,2013-05-06 09:56:00,
2013-05-06 06:01:00,45.4,44.1,30.08,NE,38,0.0,0.0,95,0.00,,,0.00,0,WeatherCatV1.14B232,2013-05-06 10:01:00,
2013-05-06 06:06:00,45.5,44.2,30.09,NE,38,1.0,1.0,95,0.00,,,0.00,5,WeatherCatV1.14B232,2013-05-06 10:06:00,
2013-05-06 06:11:00,45.6,44.3,30.09,ENE,69,0.0,1.0,95,0.00,,,0.00,7,WeatherCatV1.14B232,2013-05-06 10:11:00,
2013-05-06 06:16:00,45.7,44.1,30.09,ESE,119,0.0,0.0,94,0.00,,,0.00,9,WeatherCatV1.14B232,2013-05-06 10:16:00,
2013-05-06 06:21:00,45.8,44.2,30.09,ESE,119,0.0,0.0,94,0.00,,,0.00,11,WeatherCatV1.14B232,2013-05-06 10:21:00,
2013-05-06 06:26:00,45.9,44.3,30.09,ESE,119,0.0,0.0,94,0.00,,,0.00,16,WeatherCatV1.14B232,2013-05-06 10:26:00,
2013-05-06 06:31:00,46.1,44.5,30.10,ESE,119,0.0,0.0,94,0.00,,,0.00,16,WeatherCatV1.14B232,2013-05-06 10:31:00,
2013-05-06 06:36:00,46.1,44.5,30.10,ESE,119,0.0,0.0,94,0.00,,,0.00,19,WeatherCatV1.14B232,2013-05-06 10:36:00,
2013-05-06 06:41:00,46.3,44.7,30.10,ESE,119,0.0,0.0,94,0.00,,,0.00,25,WeatherCatV1.14B232,2013-05-06 10:41:00,
2013-05-06 06:46:00,46.5,44.9,30.10,ESE,119,0.0,0.0,94,0.00,,,0.00,28,WeatherCatV1.14B232,2013-05-06 10:46:00,
2013-05-06 06:51:00,46.7,44.8,30.10,ESE,119,0.0,0.0,93,0.00,,,0.00,35,WeatherCatV1.14B232,2013-05-06 10:51:00,
2013-05-06 06:56:00,47.0,45.1,30.10,ESE,119,0.0,0.0,93,0.00,,,0.00,40,WeatherCatV1.14B232,2013-05-06 10:56:00,
2013-05-06 07:01:00,47.2,45.0,30.10,ESE,119,0.0,0.0,92,0.00,,,0.00,47,WeatherCatV1.14B232,2013-05-06 11:01:00,
2013-05-06 07:06:00,47.3,45.1,30.10,ESE,119,0.0,0.0,92,0.00,,,0.00,47,WeatherCatV1.14B232,2013-05-06 11:06:00,
2013-05-06 07:11:00,47.6,45.4,30.10,ESE,119,0.0,0.0,92,0.00,,,0.00,62,WeatherCatV1.14B232,2013-05-06 11:11:00,
2013-05-06 07:16:00,47.8,45.3,30.10,ENE,57,0.0,3.0,91,0.00,,,0.00,63,WeatherCatV1.14B232,2013-05-06 11:16:00,
2013-05-06 07:21:00,47.9,45.4,30.10,NE,44,1.0,1.0,91,0.00,,,0.00,76,WeatherCatV1.14B232,2013-05-06 11:21:00,
2013-05-06 07:26:00,48.2,45.4,30.10,NE,48,2.0,2.0,90,0.00,,,0.00,74,WeatherCatV1.14B232,2013-05-06 11:26:00,
2013-05-06 07:31:00,48.4,45.3,30.10,ENE,63,0.0,2.0,89,0.00,,,0.00,84,WeatherCatV1.14B232,2013-05-06 11:31:00,
2013-05-06 07:36:00,48.6,45.5,30.10,ENE,74,2.0,4.0,89,0.00,,,0.00,86,WeatherCatV1.14B232,2013-05-06 11:36:00,
2013-05-06 07:41:00,48.8,45.7,30.11,NE,38,0.0,2.0,89,0.00,,,0.00,93,WeatherCatV1.14B232,2013-05-06 11:41:00,
2013-05-06 07:46:00,48.8,45.7,30.11,NNE,33,2.0,3.0,89,0.00,,,0.00,98,WeatherCatV1.14B232,2013-05-06 11:46:00,
2013-05-06 07:51:00,49.1,46.0,30.11,NNE,24,0.0,1.0,89,0.00,,,0.00,104,WeatherCatV1.14B232,2013-05-06 11:51:00,
2013-05-06 07:56:00,49.3,45.9,30.11,North,10,1.0,5.0,88,0.00,,,0.00,105,WeatherCatV1.14B232,2013-05-06 11:56:00,
2013-05-06 08:01:00,49.4,46.0,30.11,NE,43,2.0,2.0,88,0.00,,,0.00,135,WeatherCatV1.14B232,2013-05-06 12:01:00,
2013-05-06 08:06:00,49.6,45.9,30.10,NNE,24,1.0,3.0,87,0.00,,,0.00,113,WeatherCatV1.14B232,2013-05-06 12:06:00,
2013-05-06 08:11:00,50.0,46.6,30.10,North,355,0.0,4.0,88,0.00,,,0.00,132,WeatherCatV1.14B232,2013-05-06 12:11:00,
2013-05-06 08:16:00,50.6,46.6,30.10,NNE,18,0.0,5.0,86,0.00,,,0.00,116,WeatherCatV1.14B232,2013-05-06 12:16:00,
2013-05-06 08:21:00,50.5,46.5,30.11,ENE,57,3.0,4.0,86,0.00,,,0.00,141,WeatherCatV1.14B232,2013-05-06 12:21:00,
2013-05-06 08:26:00,50.6,46.6,30.11,NNE,31,2.0,6.0,86,0.00,,,0.00,155,WeatherCatV1.14B232,2013-05-06 12:26:00,
2013-05-06 08:31:00,50.8,46.8,30.11,NE,53,2.0,3.0,86,0.00,,,0.00,163,WeatherCatV1.14B232,2013-05-06 12:31:00,
2013-05-06 08:36:00,51.1,46.7,30.11,NNE,31,2.0,5.0,85,0.00,,,0.00,165,WeatherCatV1.14B232,2013-05-06 12:36:00,
2013-05-06 08:41:00,51.3,46.9,30.12,ENE,59,0.0,0.0,85,0.00,,,0.00,176,WeatherCatV1.14B232,2013-05-06 12:41:00,
2013-05-06 08:46:00,51.4,46.7,30.12,ENE,73,0.0,2.0,84,0.00,,,0.00,193,WeatherCatV1.14B232,2013-05-06 12:46:00,
2013-05-06 08:51:00,51.7,47.3,30.12,NE,37,0.0,2.0,85,0.00,,,0.00,190,WeatherCatV1.14B232,2013-05-06 12:51:00,
2013-05-06 08:56:00,51.9,46.9,30.12,NNE,18,2.0,4.0,83,0.00,,,0.00,174,WeatherCatV1.14B232,2013-05-06 12:56:00,
2013-05-06 09:01:00,51.9,46.9,30.12,NNE,27,0.0,3.0,83,0.00,,,0.00,193,WeatherCatV1.14B232,2013-05-06 13:01:00,
2013-05-06 09:06:00,52.0,47.0,30.12,NE,34,0.0,0.0,83,0.00,,,0.00,229,WeatherCatV1.14B232,2013-05-06 13:06:00,
2013-05-06 09:11:00,52.9,47.9,30.12,NNE,28,0.0,2.0,83,0.00,,,0.00,216,WeatherCatV1.14B232,2013-05-06 13:11:00,
2013-05-06 09:16:00,52.7,47.0,30.12,NE,44,0.0,1.0,81,0.00,,,0.00,211,WeatherCatV1.14B232,2013-05-06 13:16:00,
2013-05-06 09:21:00,53.1,47.8,30.12,NNE,28,0.0,0.0,82,0.00,,,0.00,207,WeatherCatV1.14B232,2013-05-06 13:21:00,
2013-05-06 09:26:00,53.2,47.2,30.12,North,351,0.0,4.0,80,0.00,,,0.00,221,WeatherCatV1.14B232,2013-05-06 13:26:00,
2013-05-06 09:31:00,53.3,47.3,30.12,ENE,62,0.0,3.0,80,0.00,,,0.00,216,WeatherCatV1.14B232,2013-05-06 13:31:00,
2013-05-06 09:36:00,53.5,47.8,30.12,North,355,0.0,0.0,81,0.00,,,0.00,267,WeatherCatV1.14B232,2013-05-06 13:36:00,
2013-05-06 09:41:00,53.9,47.5,30.12,North,355,0.0,0.0,79,0.00,,,0.00,243,WeatherCatV1.14B232,2013-05-06 13:41:00,
2013-05-06 09:46:00,54.2,47.8,30.12,NE,39,0.0,1.0,79,0.00,,,0.00,290,WeatherCatV1.14B232,2013-05-06 13:46:00,
2013-05-06 09:51:00,54.4,47.3,30.12,NE,39,0.0,2.0,77,0.00,,,0.00,283,WeatherCatV1.14B232,2013-05-06 13:51:00,
2013-05-06 09:56:00,54.8,48.4,30.12,NNE,21,0.0,1.0,79,0.00,,,0.00,308,WeatherCatV1.14B232,2013-05-06 13:56:00,
2013-05-06 10:01:00,55.3,48.9,30.12,NE,37,0.0,0.0,79,0.00,,,0.00,304,WeatherCatV1.14B232,2013-05-06 14:01:00,
2013-05-06 10:06:00,54.7,47.6,30.11,East,80,0.0,0.0,77,0.00,,,0.00,295,WeatherCatV1.14B232,2013-05-06 14:06:00,
2013-05-06 10:11:00,56.1,48.6,30.11,NW,314,1.0,2.0,76,0.00,,,0.00,320,WeatherCatV1.14B232,2013-05-06 14:11:00,
2013-05-06 10:16:00,56.4,48.2,30.11,NNW,340,0.0,0.0,74,0.00,,,0.00,341,WeatherCatV1.14B232,2013-05-06 14:16:00,
2013-05-06 10:21:00,56.4,48.6,30.11,NNW,340,0.0,0.0,75,0.00,,,0.00,396,WeatherCatV1.14B232,2013-05-06 14:21:00,
2013-05-06 10:26:00,57.0,48.4,30.11,NW,311,2.0,2.0,73,0.00,,,0.00,487,WeatherCatV1.14B232,2013-05-06 14:26:00,
2013-05-06 10:31:00,56.9,48.7,30.11,WNW,302,2.0,2.0,74,0.00,,,0.00,350,WeatherCatV1.14B232,2013-05-06 14:31:00,
2013-05-06 10:36:00,57.1,48.9,30.11,WNW,292,0.0,0.0,74,0.00,,,0.00,327,WeatherCatV1.14B232,2013-05-06 14:36:00,
2013-05-06 10:41:00,57.8,49.2,30.11,NNE,20,0.0,2.0,73,0.00,,,0.00,828,WeatherCatV1.14B232,2013-05-06 14:41:00,
2013-05-06 10:46:00,58.5,49.5,30.11,NNW,337,2.0,2.0,72,0.00,,,0.00,330,WeatherCatV1.14B232,2013-05-06 14:46:00,
2013-05-06 10:51:00,58.7,50.1,30.11,NW,322,1.0,2.0,73,0.00,,,0.00,269,WeatherCatV1.14B232,2013-05-06 14:51:00,
2013-05-06 10:56:00,58.2,49.2,30.11,NNW,332,0.0,2.0,72,0.00,,,0.00,274,WeatherCatV1.14B232,2013-05-06 14:56:00,
2013-05-06 11:01:00,58.3,49.3,30.11,NNW,337,1.0,3.0,72,0.00,,,0.00,338,WeatherCatV1.14B232,2013-05-06 15:01:00,
2013-05-06 11:06:00,58.2,49.2,30.11,WNW,296,1.0,2.0,72,0.00,,,0.00,295,WeatherCatV1.14B232,2013-05-06 15:06:00,
2013-05-06 11:11:00,58.7,50.1,30.10,WNW,296,2.0,2.0,73,0.00,,,0.00,299,WeatherCatV1.14B232,2013-05-06 15:11:00,
2013-05-06 11:16:00,58.8,49.4,30.10,WNW,297,1.0,2.0,71,0.00,,,0.00,353,WeatherCatV1.14B232,2013-05-06 15:16:00,
2013-05-06 11:21:00,59.3,49.1,30.10,WNW,299,1.0,4.0,69,0.00,,,0.00,390,WeatherCatV1.14B232,2013-05-06 15:21:00,
2013-05-06 11:26:00,59.5,49.3,30.10,WNW,299,0.0,3.0,69,0.00,,,0.00,410,WeatherCatV1.14B232,2013-05-06 15:26:00,
2013-05-06 11:31:00,59.6,49.0,30.10,WNW,299,1.0,2.0,68,0.00,,,0.00,401,WeatherCatV1.14B232,2013-05-06 15:31:00,
2013-05-06 11:36:00,60.1,49.5,30.10,WNW,300,0.0,1.0,68,0.00,,,0.00,489,WeatherCatV1.14B232,2013-05-06 15:36:00,
2013-05-06 11:41:00,61.5,50.8,30.09,WNW,300,1.0,1.0,68,0.00,,,0.00,615,WeatherCatV1.14B232,2013-05-06 15:41:00,
2013-05-06 11:46:00,61.5,50.0,30.09,WNW,299,2.0,3.0,66,0.00,,,0.00,485,WeatherCatV1.14B232,2013-05-06 15:46:00,
2013-05-06 11:51:00,63.4,50.6,30.09,WNW,299,2.0,3.0,63,0.00,,,0.00,485,WeatherCatV1.14B232,2013-05-06 15:51:00,
2013-05-06 11:56:00,64.2,50.5,30.09,WNW,299,2.0,2.0,61,0.00,,,0.00,696,WeatherCatV1.14B232,2013-05-06 15:56:00,
2013-05-06 12:01:00,63.6,50.8,30.09,WNW,298,2.0,3.0,63,0.00,,,0.00,501,WeatherCatV1.14B232,2013-05-06 16:01:00,
2013-05-06 12:06:00,62.7,50.3,30.09,WNW,297,0.0,3.0,64,0.00,,,0.00,747,WeatherCatV1.14B232,2013-05-06 16:06:00,
2013-05-06 12:11:00,62.9,50.5,30.09,WNW,298,3.0,4.0,64,0.00,,,0.00,552,WeatherCatV1.14B232,2013-05-06 16:11:00,
2013-05-06 12:16:00,61.6,49.7,30.09,WNW,300,1.0,2.0,65,0.00,,,0.00,399,WeatherCatV1.14B232,2013-05-06 16:16:00,
2013-05-06 12:21:00,61.5,49.6,30.09,WNW,301,3.0,5.0,65,0.00,,,0.00,404,WeatherCatV1.14B232,2013-05-06 16:21:00,
2013-05-06 12:26:00,60.1,49.5,30.08,WNW,298,2.0,4.0,68,0.00,,,0.00,457,WeatherCatV1.14B232,2013-05-06 16:26:00,
2013-05-06 12:31:00,59.9,50.5,30.08,NW,307,1.0,3.0,71,0.00,,,0.00,837,WeatherCatV1.14B232,2013-05-06 16:31:00,
2013-05-06 12:36:00,60.3,49.7,30.08,WNW,300,1.0,4.0,68,0.00,,,0.00,684,WeatherCatV1.14B232,2013-05-06 16:36:00,
2013-05-06 12:41:00,61.1,49.7,30.08,WNW,298,2.0,4.0,66,0.00,,,0.00,469,WeatherCatV1.14B232,2013-05-06 16:41:00,
2013-05-06 12:46:00,61.4,49.9,30.07,WNW,298,3.0,4.0,66,0.00,,,0.00,1109,WeatherCatV1.14B232,2013-05-06 16:46:00,
2013-05-06 12:51:00,62.4,50.1,30.07,NW,305,2.0,4.0,64,0.00,,,0.00,1048,WeatherCatV1.14B232,2013-05-06 16:51:00,
2013-05-06 12:56:00,61.4,49.1,30.07,WNW,298,1.0,3.0,64,0.00,,,0.00,420,WeatherCatV1.14B232,2013-05-06 16:56:00,
2013-05-06 13:01:00,62.6,50.2,30.07,WNW,303,3.0,4.0,64,0.00,,,0.00,1046,WeatherCatV1.14B232,2013-05-06 17:01:00,
2013-05-06 13:06:00,62.6,49.4,30.07,NW,304,2.0,5.0,62,0.00,,,0.00,1102,WeatherCatV1.14B232,2013-05-06 17:06:00,
2013-05-06 13:11:00,63.4,50.6,30.07,NW,304,3.0,3.0,63,0.00,,,0.00,1116,WeatherCatV1.14B232,2013-05-06 17:11:00,
2013-05-06 13:16:00,63.4,50.1,30.07,WNW,301,2.0,4.0,62,0.00,,,0.00,417,WeatherCatV1.14B232,2013-05-06 17:16:00,
2013-05-06 13:21:00,61.1,49.2,30.07,NW,307,2.0,2.0,65,0.00,,,0.00,406,WeatherCatV1.14B232,2013-05-06 17:21:00,
2013-05-06 13:26:00,61.2,50.2,30.07,WNW,300,0.0,1.0,67,0.00,,,0.00,415,WeatherCatV1.14B232,2013-05-06 17:26:00,
2013-05-06 13:31:00,61.7,49.8,30.07,NNW,343,0.0,3.0,65,0.00,,,0.00,369,WeatherCatV1.14B232,2013-05-06 17:31:00,
2013-05-06 13:36:00,61.8,49.9,30.07,WNW,300,2.0,3.0,65,0.00,,,0.00,573,WeatherCatV1.14B232,2013-05-06 17:36:00,
2013-05-06 13:41:00,62.3,50.4,30.07,WNW,296,3.0,3.0,65,0.00,,,0.00,466,WeatherCatV1.14B232,2013-05-06 17:41:00,
2013-05-06 13:46:00,62.2,49.9,30.06,WNW,294,0.0,2.0,64,0.00,,,0.00,496,WeatherCatV1.14B232,2013-05-06 17:46:00,
2013-05-06 13:51:00,62.7,50.3,30.06,WNW,299,0.0,3.0,64,0.00,,,0.00,557,WeatherCatV1.14B232,2013-05-06 17:51:00,
2013-05-06 13:56:00,63.6,51.2,30.06,WNW,302,1.0,3.0,64,0.00,,,0.00,786,WeatherCatV1.14B232,2013-05-06 17:56:00,
2013-05-06 14:01:00,63.0,50.2,30.06,WNW,295,0.0,2.0,63,0.00,,,0.00,454,WeatherCatV1.14B232,2013-05-06 18:01:00,
2013-05-06 14:06:00,64.4,51.1,30.06,WNW,294,1.0,2.0,62,0.00,,,0.00,691,WeatherCatV1.14B232,2013-05-06 18:06:00,
2013-05-06 14:11:00,64.0,50.7,30.06,WNW,299,2.0,3.0,62,0.00,,,0.00,601,WeatherCatV1.14B232,2013-05-06 18:11:00,
2013-05-06 14:16:00,64.4,50.7,30.05,WNW,300,1.0,3.0,61,0.00,,,0.00,601,WeatherCatV1.14B232,2013-05-06 18:16:00,
2013-05-06 14:21:00,63.8,50.1,30.05,WNW,298,1.0,4.0,61,0.00,,,0.00,601,WeatherCatV1.14B232,2013-05-06 18:21:00,
2013-05-06 14:26:00,65.4,51.1,30.05,NW,305,3.0,3.0,60,0.00,,,0.00,898,WeatherCatV1.14B232,2013-05-06 18:26:00,
2013-05-06 14:31:00,65.4,51.1,30.04,WNW,300,2.0,4.0,60,0.00,,,0.00,904,WeatherCatV1.14B232,2013-05-06 18:31:00,
2013-05-06 14:36:00,66.3,51.1,30.04,WNW,294,0.0,2.0,58,0.00,,,0.00,909,WeatherCatV1.14B232,2013-05-06 18:36:00,
2013-05-06 14:41:00,66.3,51.5,30.04,WNW,302,2.0,4.0,59,0.00,,,0.00,902,WeatherCatV1.14B232,2013-05-06 18:41:00,
2013-05-06 14:46:00,67.0,51.7,30.04,NW,304,0.0,2.0,58,0.00,,,0.00,1062,WeatherCatV1.14B232,2013-05-06 18:46:00,
2013-05-06 14:51:00,68.1,51.8,30.04,WNW,301,2.0,4.0,56,0.00,,,0.00,990,WeatherCatV1.14B232,2013-05-06 18:51:00,
2013-05-06 14:56:00,65.8,50.6,30.04,WNW,296,1.0,5.0,58,0.00,,,0.00,299,WeatherCatV1.14B232,2013-05-06 18:56:00,
2013-05-06 15:01:00,64.0,50.7,30.03,WNW,296,1.0,3.0,62,0.00,,,0.00,503,WeatherCatV1.14B232,2013-05-06 19:01:00,
2013-05-06 15:06:00,63.9,51.1,30.03,WNW,300,2.0,2.0,63,0.00,,,0.00,441,WeatherCatV1.14B232,2013-05-06 19:06:00,
2013-05-06 15:11:00,64.4,50.7,30.03,WNW,292,1.0,3.0,61,0.00,,,0.00,172,WeatherCatV1.14B232,2013-05-06 19:11:00,
2013-05-06 15:16:00,63.5,50.7,30.03,WNW,300,0.0,1.0,63,0.00,,,0.00,214,WeatherCatV1.14B232,2013-05-06 19:16:00,
2013-05-06 15:21:00,63.1,50.7,30.03,WNW,300,1.0,2.0,64,0.00,,,0.00,265,WeatherCatV1.14B232,2013-05-06 19:21:00,
2013-05-06 15:26:00,64.1,52.5,30.03,WNW,296,3.0,3.0,66,0.00,,,0.00,911,WeatherCatV1.14B232,2013-05-06 19:26:00,
2013-05-06 15:31:00,65.0,51.7,30.03,WNW,300,0.0,3.0,62,0.00,,,0.00,227,WeatherCatV1.14B232,2013-05-06 19:31:00,
2013-05-06 15:36:00,65.3,52.4,30.02,WNW,300,0.0,0.0,63,0.00,,,0.00,353,WeatherCatV1.14B232,2013-05-06 19:36:00,
2013-05-06 15:41:00,64.9,52.0,30.02,WNW,300,0.0,1.0,63,0.00,,,0.00,255,WeatherCatV1.14B232,2013-05-06 19:41:00,
2013-05-06 15:46:00,64.9,52.0,30.02,WNW,300,2.0,2.0,63,0.00,,,0.00,462,WeatherCatV1.14B232,2013-05-06 19:46:00,
2013-05-06 15:51:00,65.8,52.8,30.02,WNW,300,0.0,2.0,63,0.00,,,0.00,851,WeatherCatV1.14B232,2013-05-06 19:51:00,
2013-05-06 15:56:00,66.2,51.9,30.02,WNW,285,0.0,1.0,60,0.00,,,0.00,341,WeatherCatV1.14B232,2013-05-06 19:56:00,
2013-05-06 16:01:00,65.6,51.8,30.02,WNW,290,0.0,0.0,61,0.00,,,0.00,193,WeatherCatV1.14B232,2013-05-06 20:01:00,
2013-05-06 16:06:00,65.4,53.7,30.01,WNW,302,2.0,2.0,66,0.00,,,0.00,258,WeatherCatV1.14B232,2013-05-06 20:06:00,
2013-05-06 16:11:00,66.1,53.1,30.01,West,281,0.0,2.0,63,0.00,,,0.00,118,WeatherCatV1.14B232,2013-05-06 20:11:00,
2013-05-06 16:16:00,65.9,52.9,30.01,West,281,0.0,2.0,63,0.00,,,0.00,169,WeatherCatV1.14B232,2013-05-06 20:16:00,
2013-05-06 16:21:00,65.7,52.3,30.01,West,281,0.0,0.0,62,0.00,,,0.00,142,WeatherCatV1.14B232,2013-05-06 20:21:00,
2013-05-06 16:26:00,65.2,51.8,30.01,WNW,294,0.0,3.0,62,0.00,,,0.00,130,WeatherCatV1.14B232,2013-05-06 20:26:00,
2013-05-06 16:31:00,65.3,52.8,30.01,WNW,295,1.0,2.0,64,0.00,,,0.00,167,WeatherCatV1.14B232,2013-05-06 20:31:00,
2013-05-06 16:36:00,65.9,53.8,30.01,ESE,111,5.0,7.0,65,0.00,,,0.00,149,WeatherCatV1.14B232,2013-05-06 20:36:00,
2013-05-06 16:41:00,66.0,53.5,30.00,NNE,33,0.0,4.0,64,0.00,,,0.00,142,WeatherCatV1.14B232,2013-05-06 20:41:00,
2013-05-06 16:46:00,66.0,53.5,30.01,WSW,240,3.0,4.0,64,0.00,,,0.00,69,WeatherCatV1.14B232,2013-05-06 20:46:00,
2013-05-06 16:51:00,65.7,53.2,30.01,SSW,200,0.0,2.0,64,0.00,,,0.00,141,WeatherCatV1.14B232,2013-05-06 20:51:00,
2013-05-06 16:56:00,66.2,54.1,30.01,NE,53,0.0,1.0,65,0.00,,,0.00,88,WeatherCatV1.14B232,2013-05-06 20:56:00,
2013-05-06 17:01:00,66.2,53.7,30.01,WSW,242,4.0,9.0,64,0.00,,,0.00,70,WeatherCatV1.14B232,2013-05-06 21:01:00,
2013-05-06 17:06:00,65.8,52.8,30.01,ESE,109,0.0,6.0,63,0.00,,,0.00,65,WeatherCatV1.14B232,2013-05-06 21:06:00,
2013-05-06 17:11:00,65.4,53.3,30.01,SE,146,1.0,7.0,65,0.00,,,0.00,81,WeatherCatV1.14B232,2013-05-06 21:11:00,
2013-05-06 17:16:00,65.5,53.4,30.01,East,84,0.0,5.0,65,0.00,,,0.00,63,WeatherCatV1.14B232,2013-05-06 21:16:00,
2013-05-06 17:22:00,65.1,53.0,30.01,ESE,121,4.0,4.0,65,0.00,,,0.00,65,WeatherCatV1.14B232,2013-05-06 21:22:00,
2013-05-06 17:27:00,64.7,53.5,30.01,East,90,1.0,2.0,67,0.00,,,0.00,63,WeatherCatV1.14B232,2013-05-06 21:27:00,
2013-05-06 17:32:00,64.5,53.3,30.01,ESE,115,5.0,9.0,67,0.00,,,0.00,65,WeatherCatV1.14B232,2013-05-06 21:32:00,
2013-05-06 17:37:00,64.3,52.7,30.01,ESE,115,1.0,7.0,66,0.00,,,0.00,58,WeatherCatV1.14B232,2013-05-06 21:37:00,
2013-05-06 17:42:00,64.3,52.7,30.01,SE,130,1.0,6.0,66,0.00,,,0.00,58,WeatherCatV1.14B232,2013-05-06 21:42:00,
2013-05-06 17:47:00,64.3,52.7,30.01,East,83,2.0,7.0,66,0.00,,,0.00,56,WeatherCatV1.14B232,2013-05-06 21:47:00,
2013-05-06 17:52:00,64.3,53.1,30.01,ESE,118,2.0,4.0,67,0.00,,,0.00,56,WeatherCatV1.14B232,2013-05-06 21:52:00,
2013-05-06 17:57:00,64.3,52.7,30.01,WNW,284,1.0,6.0,66,0.00,,,0.00,54,WeatherCatV1.14B232,2013-05-06 21:57:00,
2013-05-06 18:02:00,64.1,52.5,30.01,East,88,0.0,4.0,66,0.00,,,0.00,93,WeatherCatV1.14B232,2013-05-06 22:02:00,
2013-05-06 18:07:00,63.9,51.9,30.01,East,94,2.0,4.0,65,0.00,,,0.00,70,WeatherCatV1.14B232,2013-05-06 22:07:00,
2013-05-06 18:12:00,64.0,52.8,30.01,ESE,122,0.0,2.0,67,0.00,,,0.00,100,WeatherCatV1.14B232,2013-05-06 22:12:00,
2013-05-06 18:17:00,64.1,52.5,30.00,WSW,254,4.0,4.0,66,0.00,,,0.00,47,WeatherCatV1.14B232,2013-05-06 22:17:00,
2013-05-06 18:22:00,64.0,52.4,30.00,ESE,112,0.0,2.0,66,0.00,,,0.00,69,WeatherCatV1.14B232,2013-05-06 22:22:00,
2013-05-06 18:27:00,63.7,52.1,30.00,SE,130,0.0,2.0,66,0.00,,,0.00,44,WeatherCatV1.14B232,2013-05-06 22:27:00,
2013-05-06 18:32:00,63.9,52.3,30.00,East,101,4.0,4.0,66,0.00,,,0.00,47,WeatherCatV1.14B232,2013-05-06 22:32:00,
2013-05-06 18:37:00,63.5,51.9,30.00,East,93,4.0,7.0,66,0.00,,,0.00,42,WeatherCatV1.14B232,2013-05-06 22:37:00,
2013-05-06 18:42:00,63.2,52.5,30.00,ESE,115,2.0,4.0,68,0.00,,,0.00,44,WeatherCatV1.14B232,2013-05-06 22:42:00,
2013-05-06 18:47:00,62.9,52.2,30.01,SE,126,1.0,1.0,68,0.00,,,0.00,56,WeatherCatV1.14B232,2013-05-06 22:47:00,
2013-05-06 18:52:00,62.7,52.4,30.01,ESE,122,1.0,2.0,69,0.00,,,0.00,100,WeatherCatV1.14B232,2013-05-06 22:52:00,
2013-05-06 18:57:00,62.6,52.7,30.01,ESE,117,0.0,2.0,70,0.00,,,0.00,70,WeatherCatV1.14B232,2013-05-06 22:57:00,
2013-05-06 19:02:00,62.3,52.4,30.01,ESE,117,0.0,0.0,70,0.00,,,0.00,28,WeatherCatV1.14B232,2013-05-06 23:02:00,
2013-05-06 19:07:00,61.9,52.0,30.01,ESE,118,0.0,0.0,70,0.00,,,0.00,28,WeatherCatV1.14B232,2013-05-06 23:07:00,
2013-05-06 19:12:00,61.7,51.8,30.01,East,98,0.0,4.0,70,0.00,,,0.00,23,WeatherCatV1.14B232,2013-05-06 23:12:00,
2013-05-06 19:17:00,61.4,51.5,30.01,East,101,0.0,2.0,70,0.00,,,0.00,19,WeatherCatV1.14B232,2013-05-06 23:17:00,
2013-05-06 19:22:00,61.1,51.6,30.01,ESE,112,0.0,2.0,71,0.00,,,0.00,18,WeatherCatV1.14B232,2013-05-06 23:22:00,
2013-05-06 19:27:00,60.9,51.8,30.01,ESE,112,0.0,0.0,72,0.00,,,0.00,14,WeatherCatV1.14B232,2013-05-06 23:27:00,
2013-05-06 19:32:00,60.5,51.8,30.01,ESE,110,0.0,0.0,73,0.00,,,0.00,12,WeatherCatV1.14B232,2013-05-06 23:32:00,
2013-05-06 19:37:00,60.4,51.7,30.01,ESE,110,0.0,0.0,73,0.00,,,0.00,9,WeatherCatV1.14B232,2013-05-06 23:37:00,
2013-05-06 19:42:00,60.3,51.6,30.01,ESE,110,0.0,0.0,73,0.00,,,0.00,5,WeatherCatV1.14B232,2013-05-06 23:42:00,
2013-05-06 19:47:00,60.1,51.8,30.01,ESE,119,0.0,0.0,74,0.00,,,0.00,0,WeatherCatV1.14B232,2013-05-06 23:47:00,
2013-05-06 19:52:00,59.7,51.4,30.01,SSE,168,0.0,2.0,74,0.00,,,0.00,0,WeatherCatV1.14B232,2013-05-06 23:52:00,
2013-05-06 19:57:00,59.6,51.3,30.01,SE,137,0.0,4.0,74,0.00,,,0.00,0,WeatherCatV1.14B232,2013-05-06 23:57:00,
2013-05-06 20:02:00,59.4,51.5,30.01,SE,135,0.0,2.0,75,0.00,,,0.00,0,WeatherCatV1.14B232,2013-05-07 00:02:00,
2013-05-06 20:07:00,59.1,51.2,30.01,SE,135,0.0,0.0,75,0.00,,,0.00,0,WeatherCatV1.14B232,2013-05-07 00:07:00,
2013-05-06 20:12:00,58.6,51.1,30.01,SE,135,0.0,0.0,76,0.00,,,0.00,0,WeatherCatV1.14B232,2013-05-07 00:12:00,
2013-05-06 20:17:00,58.4,51.2,30.01,SE,135,0.0,0.0,77,0.00,,,0.00,0,WeatherCatV1.14B232,2013-05-07 00:17:00,
2013-05-06 20:22:00,58.1,50.9,30.01,SE,135,0.0,0.0,77,0.00,,,0.00,0,WeatherCatV1.14B232,2013-05-07 00:22:00,
2013-05-06 20:27:00,58.0,51.2,30.01,SE,135,0.0,0.0,78,0.00,,,0.00,0,WeatherCatV1.14B232,2013-05-07 00:27:00,
2013-05-06 20:32:00,57.8,51.0,30.02,SE,135,0.0,0.0,78,0.00,,,0.00,0,WeatherCatV1.14B232,2013-05-07 00:32:00,
2013-05-06 20:37:00,57.6,51.1,30.02,SE,135,0.0,0.0,79,0.00,,,0.00,0,WeatherCatV1.14B232,2013-05-07 00:37:00,
2013-05-06 20:42:00,57.3,50.8,30.02,SE,135,0.0,0.0,79,0.00,,,0.00,0,WeatherCatV1.14B232,2013-05-07 00:42:00,
2013-05-06 20:47:00,57.0,50.9,30.02,SE,135,0.0,0.0,80,0.00,,,0.00,0,WeatherCatV1.14B232,2013-05-07 00:47:00,
2013-05-06 20:52:00,56.9,50.8,30.02,SE,135,0.0,0.0,80,0.00,,,0.00,0,WeatherCatV1.14B232,2013-05-07 00:52:00,
2013-05-06 20:57:00,56.9,50.8,30.02,SE,135,0.0,0.0,80,0.00,,,0.00,0,WeatherCatV1.14B232,2013-05-07 00:57:00,
2013-05-06 21:02:00,56.6,50.5,30.03,SE,135,0.0,0.0,80,0.00,,,0.00,0,WeatherCatV1.14B232,2013-05-07 01:02:00,
2013-05-06 21:07:00,56.5,50.4,30.03,SE,126,1.0,4.0,80,0.00,,,0.00,0,WeatherCatV1.14B232,2013-05-07 01:07:00,
2013-05-06 21:12:00,56.5,50.4,30.03,SE,140,0.0,2.0,80,0.00,,,0.00,0,WeatherCatV1.14B232,2013-05-07 01:12:00,
2013-05-06 21:17:00,56.4,50.3,30.03,SSE,154,0.0,1.0,80,0.00,,,0.00,0,WeatherCatV1.14B232,2013-05-07 01:17:00,
2013-05-06 21:22:00,56.2,50.4,30.03,SE,136,0.0,0.0,81,0.00,,,0.00,0,WeatherCatV1.14B232,2013-05-07 01:22:00,
2013-05-06 21:27:00,55.9,50.2,30.03,SE,136,0.0,1.0,81,0.00,,,0.00,0,WeatherCatV1.14B232,2013-05-07 01:27:00,
2013-05-06 21:32:00,55.7,50.0,30.03,SE,136,0.0,1.0,81,0.00,,,0.00,0,WeatherCatV1.14B232,2013-05-07 01:32:00,
2013-05-06 21:37:00,55.5,50.1,30.03,SE,136,0.0,0.0,82,0.00,,,0.00,0,WeatherCatV1.14B232,2013-05-07 01:37:00,
2013-05-06 21:42:00,55.1,49.7,30.03,SE,136,0.0,0.0,82,0.00,,,0.00,0,WeatherCatV1.14B232,2013-05-07 01:42:00,
2013-05-06 21:47:00,54.7,50.3,30.03,SE,136,0.0,0.0,85,0.00,,,0.00,0,WeatherCatV1.14B232,2013-05-07 01:47:00,
2013-05-06 21:52:00,54.5,49.8,30.03,SE,136,0.0,0.0,84,0.00,,,0.00,0,WeatherCatV1.14B232,2013-05-07 01:52:00,
2013-05-06 21:57:00,54.4,49.7,30.04,SE,136,0.0,0.0,84,0.00,,,0.00,0,WeatherCatV1.14B232,2013-05-07 01:57:00,
2013-05-06 22:02:00,54.3,49.2,30.03,SE,136,0.0,0.0,83,0.00,,,0.00,0,WeatherCatV1.14B232,2013-05-07 02:02:00,
2013-05-06 22:07:00,54.1,49.4,30.03,SE,136,0.0,0.0,84,0.00,,,0.00,0,WeatherCatV1.14B232,2013-05-07 02:07:00,
2013-05-06 22:12:00,53.8,49.1,30.03,SE,136,0.0,0.0,84,0.00,,,0.00,0,WeatherCatV1.14B232,2013-05-07 02:12:00,
2013-05-06 22:17:00,53.5,49.1,30.03,SE,136,0.0,0.0,85,0.00,,,0.00,0,WeatherCatV1.14B232,2013-05-07 02:17:00,
2013-05-06 22:22:00,53.2,48.8,30.03,SE,136,0.0,0.0,85,0.00,,,0.00,0,WeatherCatV1.14B232,2013-05-07 02:22:00,
2013-05-06 22:27:00,53.1,49.0,30.03,SE,136,0.0,0.0,86,0.00,,,0.00,0,WeatherCatV1.14B232,2013-05-07 02:27:00,
2013-05-06 22:32:00,52.9,48.8,30.03,SE,136,0.0,0.0,86,0.00,,,0.00,0,WeatherCatV1.14B232,2013-05-07 02:32:00,
2013-05-06 22:37:00,52.8,49.0,30.03,SE,136,0.0,0.0,87,0.00,,,0.00,0,WeatherCatV1.14B232,2013-05-07 02:37:00,
2013-05-06 22:42:00,52.8,48.7,30.03,SE,136,0.0,0.0,86,0.00,,,0.00,0,WeatherCatV1.14B232,2013-05-07 02:42:00,
2013-05-06 22:47:00,52.7,48.9,30.02,SE,136,0.0,0.0,87,0.00,,,0.00,0,WeatherCatV1.14B232,2013-05-07 02:47:00,
2013-05-06 22:52:00,52.5,48.7,30.02,SE,136,0.0,0.0,87,0.00,,,0.00,0,WeatherCatV1.14B232,2013-05-07 02:52:00,
2013-05-06 22:57:00,52.4,48.6,30.02,SE,136,0.0,0.0,87,0.00,,,0.00,0,WeatherCatV1.14B232,2013-05-07 02:57:00,
2013-05-06 23:02:00,52.3,48.5,30.03,SE,136,0.0,0.0,87,0.00,,,0.00,0,WeatherCatV1.14B232,2013-05-07 03:02:00,
2013-05-06 23:07:00,52.0,48.6,30.02,SE,136,0.0,0.0,88,0.00,,,0.00,0,WeatherCatV1.14B232,2013-05-07 03:07:00,
2013-05-06 23:12:00,51.7,48.6,30.02,SE,136,0.0,0.0,89,0.00,,,0.00,0,WeatherCatV1.14B232,2013-05-07 03:12:00,
2013-05-06 23:17:00,51.7,48.6,30.02,SE,136,0.0,0.0,89,0.00,,,0.00,0,WeatherCatV1.14B232,2013-05-07 03:17:00,
2013-05-06 23:22:00,51.7,48.6,30.02,SE,136,0.0,0.0,89,0.00,,,0.00,0,WeatherCatV1.14B232,2013-05-07 03:22:00,
2013-05-06 23:27:00,51.6,48.5,30.02,SE,136,0.0,0.0,89,0.00,,,0.00,0,WeatherCatV1.14B232,2013-05-07 03:27:00,
2013-05-06 23:32:00,51.4,48.6,30.02,SE,136,0.0,0.0,90,0.00,,,0.00,0,WeatherCatV1.14B232,2013-05-07 03:32:00,
2013-05-06 23:37:00,51.2,48.4,30.02,SE,136,0.0,0.0,90,0.00,,,0.00,0,WeatherCatV1.14B232,2013-05-07 03:37:00,
2013-05-06 23:42:00,51.0,48.2,30.02,SE,136,0.0,0.0,90,0.00,,,0.00,0,WeatherCatV1.14B232,2013-05-07 03:42:00,
2013-05-06 23:47:00,51.1,48.3,30.02,SE,136,0.0,0.0,90,0.00,,,0.00,0,WeatherCatV1.14B232,2013-05-07 03:47:00,
2013-05-06 23:52:00,51.0,48.5,30.02,SE,136,0.0,0.0,91,0.00,,,0.00,0,WeatherCatV1.14B232,2013-05-07 03:52:00,
2013-05-06 23:53:00,51.0,48.5,30.02,SE,136,0.0,0.0,91,0.00,,,0.00,0,WeatherCatV1.14B232,2013-05-07 03:53:00,
2013-05-06 23:58:00,51.0,48.2,30.02,SE,136,0.0,0.0,90,0.00,,,0.00,0,WeatherCatV1.14B232,2013-05-07 03:58:00,